FW5815 Weather Reports


time (UTC)temp
C
wind
direction
speed
KPH
gust
KPH
rain 1hr
cm
rain 24hr
cm
rain mn
cm
humidity
%
barometer
mb
20260506034018 9 5 1.6 8.0 0.00 0.00 0.00 86 1009.2
20260506033517 9 5 1.6 8.0 0.00 0.00 0.00 86 1009.2
20260506033036 9 5 1.6 8.0 0.00 0.00 0.00 87 1009.1
20260506032518 9 5 1.6 11.3 0.00 0.00 0.00 87 1009.3
20260506032017 9 12 1.6 11.3 0.00 0.00 0.00 87 1009.2
20260506031536 9 20 1.6 6.4 0.00 0.00 0.00 87 1009.2
20260506031016 9 0 1.6 9.7 0.00 0.00 0.00 87 1009.3
20260506030519 9 13 1.6 9.7 0.00 0.00 0.00 88 1009.4
20260506030054 9 5 1.6 9.7 0.00 0.00 0.00 87 1009.4
20260506025517 9 5 3.2 9.7 0.00 0.00 0.00 88 1009.4
20260506025019 9 5 1.6 9.7 0.00 0.00 0.00 88 1009.5
20260506024542 9 5 3.2 11.3 0.00 0.00 0.00 88 1009.4
20260506024015 8 13 3.2 11.3 0.00 0.00 0.00 88 1009.5
20260506023517 8 360 1.6 12.9 0.00 0.00 0.00 88 1009.5
20260506023035 8 360 3.2 12.9 0.00 0.00 0.00 88 1009.5
20260506022517 8 5 1.6 9.7 0.00 0.00 0.00 89 1009.6
20260506022017 8 5 1.6 9.7 0.00 0.00 0.00 89 1009.5
20260506021533 8 10 1.6 8.0 0.00 0.00 0.00 89 1009.6
20260506021017 8 0 3.2 9.7 0.00 0.00 0.00 89 1009.6
20260506020522 8 5 3.2 12.9 0.00 0.00 0.00 89 1009.6
20260506020033 8 5 1.6 12.9 0.00 0.00 0.00 89 1009.7
20260506015517 8 5 3.2 12.9 0.00 0.00 0.00 89 1009.7
20260506015027 8 9 1.6 9.7 0.00 0.00 0.00 89 1009.7
20260506014534 8 13 1.6 8.0 0.00 0.00 0.00 89 1009.6
20260506014015 8 13 1.6 8.0 0.00 0.00 0.00 89 1009.6
20260506013515 7 9 1.6 8.0 0.00 0.00 0.00 89 1009.6
20260506013032 7 0 0.0 8.0 0.00 0.00 0.00 89 1009.7
20260506012513 8 9 1.6 9.7 0.00 0.00 0.00 89 1009.7
20260506012016 8 10 1.6 11.3 0.00 0.00 0.00 89 1009.7
20260506011536 8 9 3.2 11.3 0.00 0.00 0.00 89 1009.7
20260506011020 8 10 1.6 8.0 0.00 0.00 0.00 89 1009.7
20260506010515 8 9 1.6 8.0 0.00 0.00 0.00 88 1009.7
20260506010030 8 9 1.6 8.0 0.00 0.00 0.00 88 1009.9
20260506005515 8 0 1.6 8.0 0.00 0.00 0.00 88 1009.8
20260506005015 8 11 3.2 8.0 0.00 0.00 0.00 88 1009.8
20260506004543 8 5 1.6 8.0 0.00 0.00 0.00 88 1009.9
20260506004015 8 5 1.6 11.3 0.00 0.00 0.00 87 1009.9
20260506003515 8 12 3.2 11.3 0.00 0.00 0.00 87 1010.0
20260506003038 8 350 1.6 11.3 0.00 0.00 0.00 87 1010.0
20260506002516 8 5 3.2 11.3 0.00 0.00 0.00 87 1010.1
20260506002017 8 5 1.6 9.7 0.00 0.00 0.00 87 1010.1
20260506001531 8 5 3.2 9.7 0.00 0.00 0.00 86 1010.1
20260506001014 8 346 3.2 11.3 0.00 0.00 0.00 86 1010.2
20260506000516 8 11 3.2 11.3 0.00 0.00 0.00 86 1010.2
20260506000030 8 0 3.2 12.9 0.00 0.00 0.00 86 1010.2
20260505235514 8 360 3.2 12.9 0.00 0.00 0.00 86 1010.2
20260505235016 8 15 1.6 12.9 0.00 0.00 0.00 86 1010.2
20260505234533 8 5 3.2 9.7 0.00 0.00 0.00 86 1010.3
20260505234016 8 10 1.6 6.4 0.00 0.00 0.00 86 1010.3
20260505233518 7 11 1.6 6.4 0.00 0.00 0.00 86 1010.4
20260505233032 7 9 1.6 9.7 0.00 0.00 0.00 86 1010.4
20260505232513 7 9 1.6 11.3 0.00 0.00 0.00 86 1010.5
20260505232013 7 12 3.2 11.3 0.00 0.00 0.00 85 1010.5
20260505231532 7 15 3.2 8.0 0.00 0.00 0.00 85 1010.6
20260505231014 7 17 1.6 8.0 0.00 0.00 0.00 85 1010.6
20260505230514 7 18 1.6 12.9 0.00 0.00 0.00 85 1010.6
20260505230041 8 17 1.6 12.9 0.00 0.00 0.00 85 1010.5
20260505225515 8 18 3.2 12.9 0.00 0.00 0.00 85 1010.6
20260505225020 8 21 1.6 12.9 0.00 0.00 0.00 84 1010.6
20260505224533 8 26 3.2 9.7 0.00 0.00 0.00 84 1010.6
20260505224015 8 5 3.2 9.7 0.00 0.00 0.00 84 1010.6
20260505223518 8 352 3.2 14.5 0.00 0.00 0.00 85 1010.6
20260505223035 8 360 3.2 14.5 0.00 0.00 0.00 85 1010.7
20260505222519 8 5 1.6 9.7 0.00 0.00 0.00 85 1010.7
20260505222015 8 5 3.2 9.7 0.00 0.00 0.00 85 1010.8
20260505221533 8 360 3.2 9.7 0.00 0.00 0.00 85 1010.8
20260505221016 8 5 1.6 8.0 0.00 0.00 0.00 85 1010.8
20260505220517 7 5 1.6 8.0 0.00 0.00 0.00 85 1010.9
20260505220040 7 360 1.6 8.0 0.00 0.00 0.00 85 1011.0
20260505215516 8 352 1.6 6.4 0.00 0.00 0.00 85 1010.9
20260505215017 8 352 1.6 4.8 0.00 0.00 0.00 85 1011.0
20260505214538 8 352 0.0 4.8 0.00 0.00 0.00 85 1011.0
20260505214016 8 0 0.0 4.8 0.00 0.00 0.00 84 1011.1
20260505213520 8 352 1.6 6.4 0.00 0.00 0.00 84 1011.1
20260505213036 8 352 0.0 6.4 0.00 0.00 0.00 84 1011.2
20260505212516 8 0 1.6 6.4 0.00 0.00 0.00 84 1011.2
20260505212016 8 5 1.6 6.4 0.00 0.00 0.00 83 1011.2
20260505211534 8 5 3.2 8.0 0.00 0.00 0.00 83 1011.3
20260505211017 8 360 1.6 8.0 0.00 0.00 0.00 83 1011.2
20260505210518 8 360 1.6 8.0 0.00 0.00 0.00 83 1011.2
20260505210033 8 352 3.2 8.0 0.00 0.00 0.00 83 1011.3
20260505205515 8 5 3.2 9.7 0.00 0.00 0.00 82 1011.4
20260505205017 8 5 3.2 9.7 0.00 0.00 0.00 82 1011.5
20260505204535 9 9 3.2 9.7 0.00 0.00 0.00 82 1011.4
20260505204017 9 5 3.2 6.4 0.00 0.00 0.00 82 1011.4
20260505203517 9 5 1.6 9.7 0.00 0.00 0.00 82 1011.4
20260505203041 9 5 3.2 12.9 0.00 0.00 0.00 81 1011.4
20260505202516 9 5 3.2 12.9 0.00 0.00 0.00 81 1011.4
20260505202017 9 5 3.2 12.9 0.00 0.00 0.00 81 1011.3
20260505201536 9 352 3.2 9.7 0.00 0.00 0.00 81 1011.4
20260505201016 9 5 3.2 11.3 0.00 0.00 0.00 81 1011.4
20260505200518 10 352 4.8 11.3 0.00 0.00 0.00 80 1011.5
20260505200036 10 360 3.2 9.7 0.00 0.00 0.00 80 1011.4
20260505195519 10 348 3.2 9.7 0.00 0.00 0.00 80 1011.4
20260505195017 10 338 4.8 12.9 0.00 0.00 0.00 80 1011.3
20260505194533 10 360 4.8 12.9 0.00 0.00 0.00 80 1011.3
20260505194015 10 5 4.8 12.9 0.00 0.00 0.00 80 1011.1
20260505193514 10 352 4.8 12.9 0.00 0.00 0.00 80 1011.1
20260505193042 10 352 4.8 12.9 0.00 0.00 0.00 79 1011.0
20260505192516 10 13 4.8 12.9 0.00 0.00 0.00 79 1011.0
20260505192017 10 5 3.2 9.7 0.00 0.00 0.00 79 1011.0
20260505191529 10 5 4.8 16.1 0.00 0.00 0.00 78 1010.9
20260505191013 10 360 6.4 16.1 0.00 0.00 0.00 78 1010.9
20260505190515 11 9 4.8 16.1 0.00 0.00 0.00 78 1010.7
20260505190040 11 352 4.8 19.3 0.00 0.00 0.00 78 1010.8
20260505185516 11 5 6.4 19.3 0.00 0.00 0.00 77 1010.7
20260505185016 11 360 6.4 22.5 0.00 0.00 0.00 77 1010.7
20260505184533 11 46 6.4 22.5 0.00 0.00 0.00 77 1010.7
20260505184016 11 30 6.4 22.5 0.00 0.00 0.00 76 1010.7
20260505183515 11 10 8.0 16.1 0.00 0.00 0.00 76 1010.7
20260505183033 11 352 4.8 19.3 0.00 0.00 0.00 76 1010.7
20260505182514 11 352 4.8 19.3 0.00 0.00 0.00 76 1010.7
20260505182013 12 352 6.4 19.3 0.00 0.00 0.00 75 1010.6
20260505181534 12 11 4.8 19.3 0.00 0.00 0.00 75 1010.6
20260505181016 12 352 6.4 16.1 0.00 0.00 0.00 75 1010.6
20260505180513 12 360 4.8 19.3 0.00 0.00 0.00 75 1010.7
20260505180039 12 349 8.0 19.3 0.00 0.00 0.00 74 1010.6
20260505175514 12 352 6.4 14.5 0.00 0.00 0.00 74 1010.6
20260505175013 12 335 6.4 16.1 0.00 0.00 0.00 74 1010.6
20260505174529 12 352 4.8 16.1 0.00 0.00 0.00 74 1010.6
20260505174013 12 26 6.4 16.1 0.00 0.00 0.00 73 1010.6
20260505173515 12 24 4.8 16.1 0.00 0.00 0.00 73 1010.7
20260505173029 12 346 4.8 16.1 0.00 0.00 0.00 73 1010.7
20260505172514 13 349 4.8 16.1 0.00 0.00 0.00 72 1010.6
20260505172014 13 15 3.2 14.5 0.00 0.00 0.00 72 1010.6
20260505171528 13 352 6.4 16.1 0.00 0.00 0.00 72 1010.7
20260505171016 13 13 3.2 16.1 0.00 0.00 0.00 72 1010.7
20260505170516 13 17 4.8 14.5 0.00 0.00 0.00 71 1010.6
20260505170027 13 352 6.4 14.5 0.00 0.00 0.00 70 1010.8
20260505165515 13 360 4.8 14.5 0.00 0.00 0.00 71 1010.7
20260505165015 13 14 4.8 14.5 0.00 0.00 0.00 70 1010.8
20260505164538 13 352 6.4 14.5 0.00 0.00 0.00 70 1010.8
20260505164014 13 5 6.4 14.5 0.00 0.00 0.00 69 1010.9
20260505163515 14 19 4.8 12.9 0.00 0.00 0.00 69 1010.7
20260505163034 14 5 4.8 14.5 0.00 0.00 0.00 69 1010.8
20260505162541 14 5 4.8 14.5 0.00 0.00 0.00 69 1010.8
20260505162018 14 49 6.4 14.5 0.00 0.00 0.00 68 1010.7
20260505161532 14 352 4.8 12.9 0.00 0.00 0.00 68 1010.8
20260505161018 14 26 4.8 16.1 0.00 0.00 0.00 68 1010.8
20260505160516 14 88 4.8 16.1 0.00 0.00 0.00 68 1010.8
20260505153039 15 100 4.8 17.7 0.00 0.00 0.00 65 1010.8
20260505152515 15 17 3.2 12.9 0.00 0.00 0.00 66 1010.8
20260505152024 15 5 4.8 12.9 0.00 0.00 0.00 65 1010.9
20260505151538 15 41 4.8 12.9 0.00 0.00 0.00 66 1010.9
20260505151016 15 27 4.8 19.3 0.00 0.00 0.00 66 1010.8
20260505150515 15 12 4.8 19.3 0.00 0.00 0.00 68 1010.9
20260505140515 15 106 4.8 12.9 0.00 0.00 0.00 64 1011.1
20260505125017 15 107 4.8 16.1 0.00 0.00 0.00 63 1011.4
20260505124534 15 20 3.2 12.9 0.00 0.00 0.00 65 1011.3
20260505124016 15 350 3.2 14.5 0.00 0.00 0.00 63 1011.4
20260505123516 16 347 6.4 14.5 0.00 0.00 0.00 62 1011.4
20260505123047 16 98 4.8 14.5 0.00 0.00 0.00 63 1011.5
20260505122516 16 53 4.8 16.1 0.00 0.00 0.00 63 1011.5
20260505122016 16 352 4.8 17.7 0.00 0.00 0.00 62 1011.4
20260505121533 16 360 6.4 17.7 0.00 0.00 0.00 64 1011.4
20260505121016 16 5 4.8 16.1 0.00 0.00 0.00 63 1011.4
20260505120516 16 352 6.4 17.7 0.00 0.00 0.00 64 1011.3
20260505120043 15 107 3.2 17.7 0.00 0.00 0.00 64 1011.4
20260505115517 15 5 6.4 19.3 0.00 0.00 0.00 63 1011.4
20260505115016 16 360 4.8 19.3 0.00 0.00 0.00 63 1011.5
20260505114531 16 81 4.8 19.3 0.00 0.00 0.00 63 1011.5
20260505114016 16 360 6.4 20.9 0.00 0.00 0.00 62 1011.6
20260505113517 16 360 6.4 20.9 0.00 0.00 0.00 63 1011.6
20260505113038 16 27 8.0 20.9 0.00 0.00 0.00 63 1011.7
20260505112520 16 100 8.0 20.9 0.00 0.00 0.00 62 1011.6
20260505112015 16 93 4.8 19.3 0.00 0.00 0.00 62 1011.7
20260505111534 16 62 6.4 16.1 0.00 0.00 0.00 63 1011.6
20260505111015 16 22 6.4 14.5 0.00 0.00 0.00 65 1011.8
20260505110518 16 334 4.8 16.1 0.00 0.00 0.00 64 1011.8
20260505102016 16 24 3.2 16.1 0.00 0.00 0.00 68 1012.0
20260505101534 15 100 6.4 16.1 0.00 0.00 0.00 67 1012.1
20260505101018 15 108 4.8 14.5 0.00 0.00 0.00 68 1012.1
20260505100516 15 25 3.2 14.5 0.00 0.00 0.00 68 1012.2
20260505100034 15 32 6.4 14.5 0.00 0.00 0.00 67 1012.0
20260505095517 15 78 4.8 14.5 0.00 0.00 0.00 68 1012.1
20260505095016 15 5 4.8 20.9 0.00 0.00 0.00 67 1012.1
20260505094534 15 73 4.8 20.9 0.00 0.00 0.00 68 1012.2
20260505094015 15 352 6.4 16.1 0.00 0.00 0.00 68 1012.1
20260505093515 15 350 3.2 14.5 0.00 0.00 0.00 67 1012.1
20260505093040 15 5 6.4 14.5 0.00 0.00 0.00 67 1012.1
20260505092517 15 352 4.8 14.5 0.00 0.00 0.00 67 1012.2
20260505092015 15 360 3.2 12.9 0.00 0.00 0.00 68 1012.3
20260505091533 15 20 4.8 14.5 0.00 0.00 0.00 68 1012.2
20260505091015 14 13 3.2 14.5 0.00 0.00 0.00 70 1012.2
20260505090516 13 13 4.8 14.5 0.00 0.00 0.00 71 1012.2
20260505090030 13 115 3.2 14.5 0.00 0.00 0.00 72 1012.2
20260505085518 14 12 4.8 14.5 0.00 0.00 0.00 71 1012.2
20260505085017 13 16 6.4 16.1 0.00 0.00 0.00 71 1012.2
20260505084552 13 39 6.4 16.1 0.00 0.00 0.00 72 1012.1
20260505084016 13 26 4.8 12.9 0.00 0.00 0.00 74 1012.1
20260505083518 13 360 4.8 12.9 0.00 0.00 0.00 77 1012.2
20260505083055 12 360 4.8 12.9 0.00 0.00 0.00 77 1012.2
20260505082516 12 352 4.8 14.5 0.00 0.00 0.00 78 1012.2
20260505082016 12 5 4.8 14.5 0.00 0.00 0.00 78 1012.2
20260505081551 12 42 4.8 14.5 0.00 0.00 0.00 76 1012.2
20260505081015 12 99 4.8 17.7 0.00 0.00 0.00 78 1012.1
20260505080517 12 17 6.4 19.3 0.00 0.00 0.00 77 1012.0
20260505080042 12 360 9.7 19.3 0.00 0.00 0.00 78 1012.0
20260505075518 12 5 4.8 19.3 0.00 0.00 0.00 79 1012.0
20260505075016 11 16 4.8 12.9 0.00 0.00 0.00 80 1012.0
20260505074531 11 11 3.2 12.9 0.00 0.00 0.00 81 1012.2
20260505074017 11 12 4.8 14.5 0.00 0.00 0.00 81 1012.3
20260505073515 11 12 6.4 16.1 0.00 0.00 0.00 82 1012.2
20260505073045 11 12 3.2 16.1 0.00 0.00 0.00 83 1012.4
20260505072515 11 13 4.8 16.1 0.00 0.00 0.00 83 1012.5
20260505072014 11 14 4.8 16.1 0.00 0.00 0.00 84 1012.4
20260505071544 11 15 4.8 14.5 0.00 0.00 0.00 84 1012.6
20260505071016 11 15 4.8 14.5 0.00 0.00 0.00 84 1012.5
20260505070521 11 19 3.2 11.3 0.00 0.00 0.00 85 1012.6
20260505070042 11 19 4.8 12.9 0.00 0.00 0.00 86 1012.6
20260505065517 11 19 3.2 12.9 0.00 0.00 0.00 86 1012.7
20260505065017 11 20 4.8 11.3 0.00 0.00 0.00 86 1012.6
20260505064535 11 20 3.2 12.9 0.00 0.00 0.00 86 1012.8
20260505064019 10 20 4.8 14.5 0.00 0.00 0.00 86 1012.8
20260505063516 10 22 4.8 14.5 0.00 0.00 0.00 86 1012.9
20260505063039 10 5 3.2 14.5 0.00 0.00 0.00 87 1013.0
20260505062517 10 5 4.8 14.5 0.00 0.00 0.00 87 1013.0
20260505062016 10 9 3.2 14.5 0.00 0.00 0.00 87 1012.9
20260505061539 10 5 3.2 14.5 0.00 0.00 0.00 87 1012.9
20260505061017 10 5 3.2 12.9 0.00 0.00 0.00 87 1013.0
20260505060517 10 5 4.8 12.9 0.00 0.00 0.00 87 1012.9
20260505060053 10 5 3.2 12.9 0.00 0.00 0.00 87 1013.0
20260505055516 10 9 1.6 12.9 0.00 0.00 0.00 88 1012.9
20260505055014 10 10 3.2 12.9 0.00 0.00 0.00 87 1012.9
20260505054533 10 9 3.2 12.9 0.00 0.00 0.00 88 1012.9
20260505054020 10 0 3.2 11.3 0.00 0.00 0.00 88 1012.8
20260505053515 10 9 4.8 14.5 0.00 0.00 0.00 88 1012.8
20260505053037 10 10 3.2 14.5 0.00 0.00 0.00 88 1012.9
20260505052515 10 9 3.2 11.3 0.00 0.00 0.00 88 1012.8
20260505052016 10 9 1.6 8.0 0.00 0.00 0.00 88 1012.7
20260505051532 10 9 3.2 8.0 0.00 0.00 0.00 88 1012.7
20260505051017 10 9 3.2 11.3 0.00 0.00 0.00 88 1012.5
20260505050518 10 9 3.2 11.3 0.00 0.00 0.00 88 1012.7
20260505041545 10 0 3.2 12.9 0.00 0.00 0.00 87 1012.5
20260505041015 10 9 3.2 12.9 0.00 0.00 0.00 87 1012.5
20260505040521 10 9 3.2 11.3 0.00 0.00 0.00 87 1012.7
20260505040034 10 9 3.2 11.3 0.00 0.00 0.00 87 1012.7
20260505035516 10 10 3.2 8.0 0.00 0.00 0.00 87 1012.6
20260505035015 10 10 1.6 11.3 0.00 0.00 0.00 87 1012.7
20260505034532 10 10 3.2 11.3 0.00 0.00 0.00 87 1012.7